Crookston, MN

10:51 PM CDT on June 22, 2017 (GMT -0500)
Crookston Municipal-Kirkwood

Weather History for KCKN - January, 2014

Change the Weather History Date:

Friday, January 31, 2014

  Actual Average Record
Temperature  
Mean Temperature -8 °F -  
Max Temperature 6 °F 17 °F 42 °F (2009)
Min Temperature -20 °F 1 °F -25 °F (2004)
Degree Days  
Heating Degree Days 72    
Moisture  
Dew Point -12 °F    
Average Humidity 76    
Maximum Humidity 85    
Minimum Humidity 70    
Precipitation  
Precipitation 0.00 in - - ()
Sea Level Pressure  
Sea Level Pressure 29.92 in    
Wind  
Wind Speed 11 mph (SSW)    
Max Wind Speed 18 mph    
Max Gust Speed -    
Visibility 10 miles    
Events      
Averages and records for this station are not official NWS values.
T = Trace of Precipitation, MM = Missing Value Source: NWS Daily Summary

Daily Weather History Graph

Daily Weather History Graph

Search for Another Location

Airport or City:

Trip Planner

Search our weather history database for the weather conditions in past years. The results will help you decide how hot, cold, wet, or windy it might be!

Date:

Astronomy

Jan. 31, 2014 Rise Set
Actual Time 7:54 AM CST 5:25 PM CST
Civil Twilight 7:21 AM CST 5:58 PM CST
Nautical Twilight 6:44 AM CST 6:36 PM CST
Astronomical Twilight 6:08 AM CST 7:12 PM CST
Moon 7:57 AM CST (1/31) 7:01 PM CST (1/31)
Length of Visible Light 10h 37m
Length of Day
9h 30m
New Moon, 1% of the Moon is Illuminated
Jan 31
New Moon
Feb 6
First Quarter
Feb 14
Full
Feb 22
Last Quarter
Mar 1
New

Hourly Weather History & Observations

Time (CST) Temp. Windchill Dew Point Humidity Pressure Visibility Wind Dir Wind Speed Gust Speed Precip Events Conditions
12:15 AM -7.6 °F -25.7 °F -14.8 °F 71% 29.99 in 10.0 mi West 10.4 mph - N/A   Overcast
12:35 AM -7.6 °F -22.1 °F -14.8 °F 71% 29.99 in 10.0 mi West 6.9 mph - N/A   Mostly Cloudy
12:54 AM -9.4 °F -27.9 °F -14.8 °F 77% 29.98 in 10.0 mi West 10.4 mph - N/A   Mostly Cloudy
1:15 AM -9.4 °F -26.8 °F -14.8 °F 77% 29.99 in 10.0 mi WSW 9.2 mph - N/A   Overcast
1:34 AM -9.4 °F -27.9 °F -14.8 °F 77% 29.99 in 10.0 mi West 10.4 mph - N/A   Overcast
1:54 AM -9.4 °F -26.8 °F -16.6 °F 71% 29.98 in 10.0 mi West 9.2 mph - N/A   Mostly Cloudy
2:15 AM -11.2 °F -27.8 °F -16.6 °F 77% 29.99 in 10.0 mi WSW 8.1 mph - N/A   Clear
2:34 AM -13.0 °F -30.0 °F -18.4 °F 77% 30.00 in 10.0 mi WSW 8.1 mph - N/A   Clear
2:54 AM -14.8 °F -32.2 °F -20.2 °F 77% 30.00 in 10.0 mi SW 8.1 mph - N/A   Clear
3:15 AM -14.8 °F -32.2 °F -20.2 °F 77% 29.99 in 10.0 mi WSW 8.1 mph - N/A   Clear
3:34 AM -16.6 °F -34.4 °F -22.0 °F 76% 29.99 in 10.0 mi SW 8.1 mph - N/A   Clear
3:54 AM -16.6 °F -35.7 °F -22.0 °F 76% 29.99 in 10.0 mi SW 9.2 mph - N/A   Clear
4:15 AM -16.6 °F -36.8 °F -22.0 °F 76% 29.98 in 10.0 mi WSW 10.4 mph - N/A   Clear
4:34 AM -16.6 °F -35.7 °F -22.0 °F 76% 29.98 in 10.0 mi WSW 9.2 mph - N/A   Clear
4:54 AM -16.6 °F -35.7 °F -22.0 °F 76% 29.98 in 10.0 mi SW 9.2 mph - N/A   Clear
5:15 AM -18.4 °F -37.9 °F -25.6 °F 70% 29.98 in 10.0 mi SW 9.2 mph - N/A   Clear
5:34 AM -18.4 °F -36.6 °F -25.6 °F 70% 29.97 in 10.0 mi SSW 8.1 mph - N/A   Clear
5:54 AM -18.4 °F -39.1 °F -25.6 °F 70% 29.97 in 10.0 mi SW 10.4 mph - N/A   Clear
6:15 AM -20.2 °F -38.8 °F -25.6 °F 76% 29.97 in 10.0 mi SW 8.1 mph - N/A   Clear
6:34 AM -20.2 °F -38.8 °F -25.6 °F 76% 29.97 in 10.0 mi SW 8.1 mph - N/A   Clear
6:54 AM -20.2 °F -42.4 °F -25.6 °F 76% 29.97 in 10.0 mi SW 11.5 mph - N/A   Clear
7:15 AM -18.4 °F -37.9 °F -25.6 °F 70% 29.97 in 10.0 mi SW 9.2 mph - N/A   Clear
7:34 AM -18.4 °F -36.6 °F -25.6 °F 70% 29.97 in 10.0 mi SSW 8.1 mph - N/A   Clear
7:55 AM -20.2 °F -40.1 °F -25.6 °F 76% 29.98 in 10.0 mi SW 9.2 mph - N/A   Clear
8:14 AM -18.4 °F -39.1 °F -23.8 °F 76% 29.98 in 10.0 mi SSW 10.4 mph - N/A   Clear
8:34 AM -16.6 °F -37.9 °F -23.8 °F 70% 29.97 in 10.0 mi SW 11.5 mph - N/A   Clear
8:55 AM -14.8 °F -36.6 °F -20.2 °F 77% 29.97 in 10.0 mi SSW 12.7 mph - N/A   Clear
9:14 AM -13.0 °F -35.2 °F -18.4 °F 77% 29.96 in 10.0 mi SSW 13.8 mph - N/A   Clear
9:34 AM -13.0 °F -33.4 °F -18.4 °F 77% 29.97 in 10.0 mi SW 11.5 mph - N/A   Clear
9:55 AM -11.2 °F -32.1 °F -18.4 °F 70% 29.97 in 10.0 mi SW 12.7 mph - N/A   Clear
10:14 AM -9.4 °F -30.6 °F -16.6 °F 71% 29.96 in 10.0 mi SW 13.8 mph - N/A   Clear
10:34 AM -7.6 °F -29.1 °F -14.8 °F 71% 29.96 in 10.0 mi SSW 15.0 mph - N/A   Clear
10:55 AM -5.8 °F -27.5 °F -13.0 °F 71% 29.95 in 10.0 mi SW 16.1 mph - N/A   Clear
11:14 AM -5.8 °F -26.8 °F -11.2 °F 77% 29.95 in 10.0 mi SW 15.0 mph - N/A   Clear
11:34 AM -4.0 °F -23.7 °F -11.2 °F 71% 29.95 in 10.0 mi SSW 13.8 mph - N/A   Clear
11:55 AM -4.0 °F -23.0 °F -9.4 °F 78% 29.94 in 10.0 mi SSW 12.7 mph - N/A   Clear
12:14 PM -2.2 °F -24.1 °F -9.4 °F 71% 29.94 in 10.0 mi SSW 18.4 mph - N/A   Clear
12:35 PM -2.2 °F -22.2 °F -9.4 °F 71% 29.93 in 10.0 mi SSW 15.0 mph - N/A   Clear
12:55 PM -0.4 °F -20.5 °F -7.6 °F 72% 29.93 in 10.0 mi SW 16.1 mph - N/A   Clear
1:14 PM -0.4 °F -19.9 °F -7.6 °F 72% 29.91 in 10.0 mi SSW 15.0 mph - N/A   Clear
1:35 PM 1.4 °F -17.6 °F -5.8 °F 72% 29.91 in 10.0 mi SSW 15.0 mph - N/A   Clear
1:55 PM 1.4 °F -16.9 °F -5.8 °F 72% 29.89 in 10.0 mi SSW 13.8 mph - N/A   Clear
2:14 PM 3.2 °F -14.6 °F -4.0 °F 72% 29.89 in 10.0 mi SSW 13.8 mph - N/A   Clear
2:35 PM 3.2 °F -13.9 °F -4.0 °F 72% 29.88 in 10.0 mi SSW 12.7 mph - N/A   Clear
2:54 PM 3.2 °F -13.9 °F -4.0 °F 72% 29.88 in 10.0 mi South 12.7 mph - N/A   Clear
3:14 PM 3.2 °F -17.1 °F -2.2 °F 78% 29.88 in 10.0 mi SSW 18.4 mph - N/A   Clear
3:35 PM 3.2 °F -14.6 °F -2.2 °F 78% 29.88 in 10.0 mi SSW 13.8 mph - N/A   Clear
3:54 PM 3.2 °F -15.3 °F -2.2 °F 78% 29.88 in 10.0 mi South 15.0 mph - N/A   Clear
4:15 PM 1.4 °F -18.8 °F -4.0 °F 78% 29.87 in 10.0 mi South 17.3 mph - N/A   Clear
4:34 PM 1.4 °F -19.4 °F -4.0 °F 78% 29.87 in 10.0 mi South 18.4 mph - N/A   Clear
4:54 PM 1.4 °F -19.4 °F -4.0 °F 78% 29.86 in 10.0 mi South 18.4 mph - N/A   Clear
5:15 PM 1.4 °F -16.9 °F -4.0 °F 78% 29.85 in 10.0 mi South 13.8 mph - N/A   Clear
5:34 PM 1.4 °F -17.6 °F -4.0 °F 78% 29.85 in 10.0 mi South 15.0 mph - N/A   Clear
5:55 PM 1.4 °F -16.9 °F -4.0 °F 78% 29.85 in 10.0 mi South 13.8 mph - N/A   Clear
6:15 PM 1.4 °F -17.6 °F -4.0 °F 78% 29.84 in 10.0 mi South 15.0 mph - N/A   Clear
6:34 PM 1.4 °F -16.9 °F -4.0 °F 78% 29.85 in 10.0 mi South 13.8 mph - N/A   Clear
6:55 PM 1.4 °F -16.1 °F -4.0 °F 78% 29.85 in 10.0 mi South 12.7 mph - N/A   Clear
7:14 PM 1.4 °F -17.6 °F -4.0 °F 78% 29.85 in 10.0 mi South 15.0 mph - N/A   Clear
7:34 PM 1.4 °F -18.2 °F -4.0 °F 78% 29.85 in 10.0 mi South 16.1 mph - N/A   Clear
7:54 PM 1.4 °F -16.9 °F -4.0 °F 78% 29.85 in 10.0 mi South 13.8 mph - N/A   Clear
8:14 PM 3.2 °F -14.6 °F -2.2 °F 78% 29.86 in 10.0 mi SSW 13.8 mph - N/A   Clear
8:35 PM 3.2 °F -15.3 °F -2.2 °F 78% 29.85 in 10.0 mi SSW 15.0 mph - N/A   Clear
8:54 PM 3.2 °F -15.3 °F -2.2 °F 78% 29.85 in 10.0 mi SSW 15.0 mph - N/A   Clear
9:14 PM 1.4 °F -16.1 °F -2.2 °F 85% 29.85 in 10.0 mi South 12.7 mph - N/A   Clear
9:35 PM 1.4 °F -14.5 °F -2.2 °F 85% 29.85 in 10.0 mi South 10.4 mph - N/A   Clear
9:54 PM 1.4 °F -15.3 °F -2.2 °F 85% 29.85 in 10.0 mi South 11.5 mph - N/A   Clear
10:14 PM 1.4 °F -14.5 °F -4.0 °F 78% 29.85 in 10.0 mi South 10.4 mph - N/A   Clear
10:35 PM -0.4 °F -16.7 °F -4.0 °F 85% 29.84 in 10.0 mi South 10.4 mph - N/A   Clear
10:54 PM 3.2 °F -11.3 °F -2.2 °F 78% 29.84 in 10.0 mi South 9.2 mph - N/A   Mostly Cloudy
11:14 PM 3.2 °F -12.2 °F -0.4 °F 85% 29.83 in 10.0 mi South 10.4 mph - N/A   Overcast
11:35 PM 5.0 °F -10.8 °F -0.4 °F 78% 29.83 in 10.0 mi South 11.5 mph - N/A   Overcast
11:54 PM 6.8 °F -6.9 °F 1.4 °F 79% 29.83 in 10.0 mi South 9.2 mph - N/A   Overcast